User: anonymous   Login
Location: Spradlin Observatory
(33.4706°N, 86.3221°W)
Time: 00:21:41
(UTC-05:00)
Language:

COSMOS 2406 - Orbit

View from above orbital plane
View from above orbital plane
View from above satellite
View from above satellite

Ground track
Ground track

The orbit data is extracted from the following two-line orbital elements,

1 28352U 04021A   17112.76521431 -.00000135 +00000-0 -48071-4 0  9993
2 28352 071.0062 240.4201 0015499 197.9435 162.1140 14.11633870662987
Epoch (UTC): 22 April 2017 18:21:54
Eccentricity: 0.0015499
inclination: 71.0062°
perigee height: 842 km
apogee height: 865 km
right ascension of ascending node: 240.4201°
argument of perigee: 197.9435°
revolutions per day: 14.11633870
mean anomaly at epoch: 162.1140°
orbit number at epoch: 66298

The dashed part of the orbit path shows where the satellite is in the earth's shadow,  

DLR